Tracking 17887 objects as of 11-December-2016
HD Live streaming from Space Station
objects crossing your sky now

TURKSAT 2A

Track TURKSAT 2A now!
TURKSAT 2A is classified as:


NORAD ID: 26666
Int'l Code: 2001-002A
Perigee: 36,331.3 km
Apogee: 36,434.5 km
Inclination: 0.8 °
Period: 1,466.3 minutes
Semi major axis: 42753 km
RCS: 3.9 m2 (large)
Launch date: January 10, 2001
Source: Turkey (TURK)
Launch site: FRENCH GUIANA (FRGUI)

32 Ku-band transponders; direct-to-home voice, video, and data transmissions to countries between central Europe and the Indian subcontinent.
Your satellite tracking list
Your tracking list is empty





NASA's NSSDC Master Catalog

Two Line Element Set (TLE):
1 26666U 01002A   16346.10672940  .00000002  00000-0  00000+0 0  9999
2 26666   0.7569  85.5696 0012066 207.3316  66.9880  0.98206240 58305
Source of the keplerian elements: AFSPC